Temperature
11 11 11 11 11 11 12 12 12 12 12 12 13 13 13 14 14 14 14 15 15 15 15 15 15 15 15 15 15 15 15 15 15 16 16 16 15 15 15 15 15 15 15
11 11 11 11 11 11 11 11 12 12 12 12 12 12 13 13 13 14 14 14 14 15 15 15 15 15 15 15 15 15 15 15 15 15 15 15 15 15 15 15 14 14 14
11 11 11 11 11 11 11 11 11 11 12 12 12 12 12 13 13 13 13 14 14 14 14 14 15 14 14 14 14 14 15 15 15 15 15 14 14 14 14 14 14 14 14
12 11 11 11 11 11 11 11 11 11 11 12 12 12 12 12 12 13 13 13 13 14 14 14 14 14 14 14 14 14 14 14 14 14 14 14 14 14 14 14 13 13 13
12 11 11 11 11 11 11 11 11 11 11 11 11 11 12 12 12 12 12 13 13 13 13 14 14 14 14 14 14 14 14 14 14 14 14 14 13 13 13 13 13 13 13
12 11 11 11 11 10 10 10 10 10 10 11 11 11 11 11 11 12 12 12 12 13 13 13 13 13 13 13 13 14 14 14 14 14 14 14 13 13 13 13 13 13 12
12 11 11 11 10 10 10 10 10 10 10 10 10 11 11 11 11 12 12 12 12 12 12 13 13 13 13 13 13 13 13 13 14 14 14 14 14 13 13 13 13 13 13
12 11 11 11 10 10 10 10 10 10 10 10 10 10 11 11 11 11 11 12 12 12 12 12 12 13 13 13 13 13 13 13 13 13 14 14 14 13 13 13 13 12 12
12 11 11 10 10 10 10 10 10 10 10 10 10 10 10 11 11 11 11 11 12 12 12 12 12 12 12 13 13 13 13 13 13 13 13 13 13 13 13 13 12 12 12
11 11 11 11 10 10 10 10 10 10 10 10 10 10 10 10 11 11 11 11 11 11 11 12 12 12 12 13 13 13 13 13 13 13 13 13 13 13 13 13 13 13 12
11 11 11 11 10 10 10 10 10 10 10 10 10 10 10 10 10 11 11 11 11 11 11 11 12 12 12 12 13 13 13 13 13 13 13 13 13 13 12 12 12 12 12
12 11 11 11 11 11 10 10 10 10 10 10 10 10 10 10 10 10 11 11 11 11 11 11 12 12 12 12 12 13 13 13 13 13 12 12 12 12 12 12 12 12 12
12 12 11 11 11 11 11 10 10 10 10 10 10 10 10 10 10 10 10 11 11 11 11 11 11 12 12 12 12 12 13 13 13 12 12 12 12 12 12 12 12 11 11
12 12 12 12 11 11 11 11 11 10 10 10 10 10 10 10 10 10 10 10 11 11 11 11 11 12 12 12 12 12 12 12 12 12 12 12 12 12 12 11 11 11 11
13 13 12 12 12 11 11 11 11 11 11 11 10 10 10 10 10 10 10 10 11 11 11 11 11 12 12 12 12 12 12 12 12 12 12 12 11 11 11 11 11 11 11
13 13 13 12 12 12 11 11 11 11 11 11 11 11 11 11 10 10 10 11 11 11 11 11 11 11 12 12 12 12 12 12 12 12 11 11 11 11 11 11 10 10 10
14 13 13 13 12 12 12 11 11 11 11 11 11 11 11 11 11 11 11 11 11 11 11 11 11 11 11 11 12 12 12 11 11 11 11 11 11 11 10 10 10 10 10
14 14 13 13 13 12 12 12 11 11 11 11 11 11 11 11 11 11 11 11 11 11 11 11 11 11 11 11 11 11 11 11 11 11 11 11 11 10 10 10 10 10 9
15 14 14 13 13 13 12 12 12 12 11 11 11 11 11 11 11 11 11 11 11 11 11 11 11 11 11 11 11 11 11 11 11 11 11 10 10 10 10 10 10 9 9
15 15 14 14 13 13 13 12 12 12 12 12 12 11 11 11 11 11 11 11 11 11 11 11 11 11 11 11 11 11 11 11 11 11 10 10 10 10 10 10 9 9 9
16 15 15 14 14 13 13 13 13 12 12 12 12 12 12 11 11 11 11 11 11 11 11 11 11 11 11 11 11 10 10 10 10 10 10 10 10 10 9 9 9 9 9
16 15 15 15 14 14 13 13 13 13 12 12 12 12 12 12 12 11 11 11 11 11 11 11 11 11 11 11 11 11 11 11 10 10 10 10 10 9 9 9 9 9 9
16 16 15 15 14 14 14 13 13 13 13 13 12 12 12 12 12 12 12 11 11 11 11 11 11 11 11 11 11 11 11 10 10 10 10 10 10 9 9 9 9 9 8
16 16 16 15 15 14 14 14 13 13 13 13 13 12 12 12 12 12 12 12 11 11 11 11 11 11 11 11 11 11 11 11 10 10 10 10 9 9 9 9 9 9 8
16 16 16 15 15 14 14 14 14 13 13 13 13 13 13 13 12 12 12 12 12 12 12 11 11 11 12 11 11 11 11 11 10 10 10 10 9 9 9 9 9 9 8
16 16 16 16 15 15 14 14 14 13 13 13 13 13 13 13 13 12 12 12 12 12 12 12 12 12 12 12 12 12 11 11 11 10 10 10 9 9 9 9 9 9 8
Wind_Speed
7 6 7 8 8 8 7 7 7 7 8 8 6 5 5 4 2 1 2 3 5 5 5 7 7 7 6 6 5 5 5 5 4 3 2 2 3 6 6 7 8 8 9
5 6 7 7 7 8 8 8 8 7 7 7 7 6 6 6 5 3 1 1 3 4 5 6 7 6 7 6 6 6 6 5 5 5 3 2 3 5 6 6 7 8 9
4 5 7 7 7 7 7 7 8 7 7 7 7 7 6 6 6 4 2 1 0 2 4 6 7 7 7 6 7 7 5 5 4 5 4 2 3 4 6 6 7 7 9
3 5 6 6 6 6 6 7 7 7 7 7 7 7 6 6 5 5 4 2 1 0 2 4 5 7 7 8 7 7 7 6 5 6 5 4 4 4 6 7 7 5 6
3 4 5 5 6 6 6 6 7 7 7 6 6 7 7 6 6 5 3 2 1 1 1 2 4 6 9 8 7 8 8 6 6 6 6 5 5 6 6 5 7 7 6
2 3 4 5 6 6 6 6 6 6 6 6 7 7 7 6 9 9 4 2 2 2 2 3 3 5 7 8 9 10 10 8 8 6 5 7 6 6 6 8 9 7 4
2 2 3 4 5 6 6 6 6 6 6 6 6 7 7 8 11 9 7 3 3 3 3 3 3 4 5 5 7 8 7 8 9 7 8 7 7 7 9 9 8 5 5
1 2 3 3 4 5 6 6 6 5 5 5 6 7 7 9 12 9 6 5 4 4 4 4 4 5 5 6 7 6 5 4 5 6 7 6 6 8 9 8 9 8 7
1 1 1 2 3 5 6 6 4 4 5 4 4 6 7 8 13 10 6 4 4 5 5 5 5 5 7 9 8 8 7 5 7 9 9 9 12 14 13 10 9 10 6
2 2 2 1 2 3 5 4 4 3 4 4 5 6 7 8 12 11 7 4 5 5 5 5 7 7 8 8 7 8 8 6 7 8 9 9 9 11 13 10 10 10 6
4 2 1 1 2 2 3 4 4 4 4 5 5 6 7 9 11 12 9 4 4 5 4 4 4 7 8 8 7 6 8 8 8 9 8 7 7 6 5 6 6 8 6
4 3 2 2 1 1 3 4 4 4 5 5 5 5 6 7 9 10 12 9 6 5 4 3 4 7 8 7 7 9 12 10 7 7 7 6 6 5 5 6 9 8 6
4 3 3 2 1 0 1 2 3 4 3 3 4 4 5 5 7 11 12 11 9 5 4 6 7 8 8 7 8 11 9 7 7 7 7 5 4 5 6 6 8 11 12
5 4 4 3 2 1 0 1 1 2 2 2 3 3 4 4 5 6 5 5 7 6 5 7 9 10 8 8 8 7 6 6 7 7 6 5 4 5 5 5 5 5 6
6 5 5 5 4 3 1 1 1 2 2 1 1 1 2 3 4 6 4 4 3 3 4 5 5 5 5 5 5 5 5 5 6 4 5 5 5 5 4 3 4 4 4
6 5 5 5 4 4 3 2 3 3 3 2 2 2 2 2 4 4 5 5 5 6 6 5 4 4 5 4 5 4 4 5 4 5 5 5 5 5 4 3 3 4 5
7 6 5 5 5 5 4 4 3 3 4 5 5 4 3 3 3 4 4 4 5 6 5 4 3 3 3 4 4 4 3 3 4 5 5 5 5 5 4 4 4 4 4
8 8 7 6 6 6 5 5 4 4 3 4 4 6 5 4 3 3 2 4 4 3 2 3 3 3 3 3 3 3 3 4 4 4 5 5 5 4 4 5 5 5 4
8 6 6 6 6 6 5 5 5 5 4 3 2 3 4 4 3 2 1 2 3 2 2 2 3 3 3 3 3 3 4 4 4 4 4 5 5 5 5 5 5 7 5
8 11 9 6 6 5 5 5 5 5 5 5 5 4 2 2 1 1 1 2 3 3 3 3 3 3 4 4 4 4 4 4 4 4 4 4 4 5 6 6 6 5 4
8 8 12 7 6 6 6 6 6 6 6 6 6 7 8 5 5 5 4 4 4 5 5 5 4 4 4 4 4 4 5 4 4 4 4 4 5 4 4 5 5 5 5
9 8 7 8 7 7 7 6 6 6 7 8 6 5 11 6 5 5 5 5 6 5 5 5 5 5 5 5 5 5 5 5 5 5 5 5 5 5 5 5 5 5 5
10 9 8 8 8 9 8 6 6 7 7 8 7 6 6 7 7 7 7 6 6 6 5 5 6 5 4 6 6 5 6 6 6 6 6 6 5 5 5 5 6 5 5
11 11 10 9 8 8 8 8 7 7 8 8 8 8 8 8 8 8 8 7 6 6 6 6 6 8 9 8 8 9 9 9 9 10 9 8 7 6 5 5 5 6 6
12 12 11 10 10 9 9 8 8 8 8 8 8 8 8 9 9 8 8 7 8 8 9 8 8 9 12 12 12 12 12 12 11 11 11 6 8 7 6 5 5 5 5
13 13 12 10 10 9 9 9 9 9 9 8 8 8 9 9 9 9 8 8 8 8 8 8 11 13 14 15 16 17 16 15 14 13 12 7 7 7 7 5 7 6 6
Wind_Direction
345 349 356 357 1 7 10 5 3 8 9 9 9 8 6 7 360 336 221 201 198 196 191 192 197 189 184 183 177 174 175 164 169 175 167 145 137 137 134 138 141 151 169
349 359 1 0 6 11 10 6 6 11 11 11 11 15 14 16 16 13 331 236 201 196 189 185 187 184 182 180 179 180 177 165 160 160 157 144 135 144 136 133 128 125 125
6 10 8 7 9 9 6 5 8 12 13 14 14 13 10 9 8 2 360 12 211 196 188 185 180 176 180 176 178 177 173 167 148 148 152 141 124 131 124 119 116 110 117
15 17 12 3 3 2 1 2 4 6 11 12 12 7 4 3 4 360 6 20 28 92 171 179 177 179 182 178 175 171 165 158 151 148 142 134 128 130 132 132 124 112 112
20 16 4 358 0 2 2 360 360 3 9 4 8 6 1 1 5 6 6 17 43 61 97 141 163 175 180 176 170 167 162 160 159 154 146 139 144 148 149 142 131 119 99
33 11 2 5 3 360 355 354 357 358 358 4 7 4 4 3 3 16 27 37 60 79 91 99 125 144 164 164 161 165 166 167 165 159 156 156 158 153 141 142 138 138 127
41 8 6 8 4 352 348 354 355 354 359 2 1 4 359 352 8 17 33 57 62 69 86 102 113 118 123 129 142 147 158 168 167 160 159 163 161 160 150 149 151 139 128
73 9 359 5 359 348 350 350 346 347 353 356 360 2 360 3 14 20 39 59 65 65 75 89 103 107 115 118 117 111 107 120 155 157 159 163 159 155 152 146 137 111 100
115 318 319 348 356 352 349 342 341 350 356 357 359 6 8 2 13 24 53 62 73 72 71 74 95 105 117 115 113 108 96 87 94 112 125 131 139 142 139 131 132 134 130
213 229 252 294 348 349 343 338 341 351 353 0 15 11 13 8 12 28 54 71 81 78 69 63 72 94 109 109 113 115 109 102 102 93 92 97 110 128 138 145 148 146 136
210 205 228 264 288 335 349 349 357 10 15 14 17 12 13 11 15 32 49 65 84 87 79 63 65 88 97 98 100 109 117 113 104 100 95 92 92 95 101 116 133 146 141
203 202 222 256 292 25 21 11 15 25 31 18 15 12 8 6 16 32 47 56 70 86 80 65 70 86 95 99 100 109 111 104 101 100 99 95 97 96 95 97 101 93 89
203 212 219 224 258 30 49 26 20 25 31 16 18 15 0 3 14 31 40 48 56 72 73 75 80 84 85 88 104 109 106 105 107 106 107 101 95 103 100 92 83 82 71
204 213 211 207 218 244 5 40 46 25 20 11 10 5 357 4 10 12 17 30 45 59 62 69 73 75 78 83 90 95 98 112 118 118 113 103 94 93 99 105 104 94 80
208 213 209 207 204 207 215 242 240 249 241 256 290 319 351 360 344 354 20 28 37 53 68 67 67 72 75 75 79 85 93 104 107 109 114 115 111 107 101 95 98 90 98
201 209 209 208 207 204 206 257 288 260 278 278 267 258 286 302 329 8 30 40 62 81 81 81 79 82 91 97 102 96 94 109 118 122 124 126 128 126 119 103 98 111 120
198 203 205 206 205 204 203 212 248 281 279 283 283 282 280 303 334 359 18 48 80 91 86 92 97 101 102 107 113 113 114 120 127 131 135 136 133 131 130 131 128 123 126
201 203 197 203 205 205 206 209 210 216 247 274 272 263 270 285 306 334 32 83 80 75 106 124 127 127 123 124 126 123 119 119 124 134 138 142 143 140 141 147 151 150 145
199 201 200 203 206 208 208 205 206 210 217 231 250 271 260 273 301 317 68 116 146 150 149 148 151 150 147 144 140 135 134 138 141 139 142 146 148 143 148 156 159 158 147
204 206 195 198 205 208 207 206 208 211 213 213 219 223 208 176 221 247 203 180 175 179 175 169 167 162 156 153 149 142 136 138 142 142 148 152 154 155 159 162 163 163 168
201 205 202 196 203 207 208 211 212 209 211 215 222 216 188 187 205 212 208 203 197 193 188 182 177 171 166 160 158 159 158 163 165 161 159 160 157 156 160 162 166 165 161
198 200 198 202 206 211 214 213 210 210 213 217 224 222 204 199 203 208 212 214 210 204 194 184 185 187 182 177 172 169 171 177 179 174 170 167 163 159 155 159 164 167 168
198 201 204 207 208 214 216 215 212 211 213 213 209 203 197 207 213 214 215 214 206 202 194 186 188 196 198 195 188 177 179 190 191 180 172 170 169 169 164 167 171 168 178
201 202 205 206 207 208 212 217 215 214 213 212 208 206 207 209 213 216 215 209 204 202 196 192 194 200 199 198 198 196 196 197 194 190 179 173 174 174 171 173 178 183 186
202 204 205 206 207 209 213 217 218 217 215 213 211 211 211 211 214 217 214 207 203 204 204 201 203 205 206 203 201 201 201 197 191 187 182 171 176 177 176 179 179 179 182
205 206 207 206 206 208 210 215 218 218 217 215 212 211 211 211 213 215 210 204 204 207 207 205 208 208 208 208 209 207 203 199 195 189 181 172 174 180 180 185 188 186 187
Height
1514 1510 1506 1502 1499 1495 1492 1489 1486 1483 1481 1479 1478 1477 1476 1476 1477 1477 1478 1479 1481 1483 1486 1488 1491 1494 1498 1501 1505 1508 1512 1516 1519 1523 1526 1529 1532 1534 1537 1540 1542 1545 1546
1515 1511 1507 1503 1500 1496 1493 1490 1487 1484 1482 1480 1478 1476 1475 1475 1475 1475 1475 1476 1478 1479 1481 1484 1487 1490 1493 1496 1499 1503 1507 1511 1515 1518 1521 1525 1528 1531 1534 1537 1539 1542 1544
1516 1512 1508 1505 1501 1497 1494 1491 1488 1485 1483 1481 1479 1477 1475 1474 1474 1474 1474 1474 1475 1476 1478 1480 1482 1485 1488 1491 1495 1498 1502 1506 1510 1514 1517 1521 1525 1528 1531 1534 1537 1539 1541
1516 1513 1509 1505 1502 1499 1495 1492 1489 1486 1484 1481 1479 1477 1476 1475 1474 1473 1472 1473 1473 1474 1476 1477 1480 1482 1485 1488 1491 1495 1498 1502 1506 1510 1514 1518 1521 1525 1528 1531 1534 1537 1539
1517 1514 1510 1507 1503 1500 1496 1493 1490 1487 1484 1482 1480 1478 1476 1475 1474 1473 1472 1472 1472 1473 1474 1475 1478 1480 1483 1485 1488 1491 1495 1499 1503 1506 1510 1514 1518 1522 1525 1528 1532 1535 1537
1518 1514 1511 1508 1505 1501 1498 1494 1491 1488 1486 1483 1481 1479 1477 1475 1474 1473 1473 1472 1472 1473 1473 1475 1477 1479 1482 1484 1487 1490 1493 1496 1500 1503 1507 1511 1515 1519 1523 1526 1529 1532 1536
1518 1515 1512 1509 1506 1502 1499 1496 1493 1490 1487 1484 1482 1480 1478 1476 1475 1474 1473 1473 1473 1473 1474 1475 1477 1479 1481 1484 1487 1490 1493 1496 1499 1502 1506 1509 1513 1516 1520 1524 1528 1531 1534
1519 1516 1513 1510 1507 1504 1501 1497 1494 1491 1489 1486 1483 1481 1479 1477 1476 1475 1474 1474 1474 1474 1475 1476 1477 1479 1481 1484 1486 1489 1492 1495 1499 1502 1505 1509 1512 1516 1520 1523 1527 1530 1534
1519 1517 1514 1511 1508 1505 1502 1499 1496 1493 1490 1488 1485 1483 1480 1479 1477 1476 1475 1475 1475 1475 1476 1478 1479 1481 1483 1485 1488 1490 1493 1496 1499 1502 1505 1508 1512 1515 1519 1523 1526 1529 1532
1519 1517 1515 1512 1509 1506 1503 1500 1498 1495 1492 1490 1487 1484 1482 1480 1479 1477 1477 1476 1476 1477 1478 1480 1481 1483 1485 1487 1489 1492 1494 1497 1499 1502 1505 1509 1512 1516 1519 1522 1525 1528 1531
1520 1518 1516 1513 1510 1508 1505 1502 1499 1497 1494 1492 1489 1487 1484 1482 1481 1480 1479 1478 1478 1479 1480 1482 1483 1485 1487 1489 1492 1494 1496 1499 1501 1504 1507 1510 1513 1516 1519 1523 1526 1529 1531
1520 1518 1516 1514 1511 1509 1506 1503 1501 1498 1496 1494 1492 1489 1487 1485 1483 1482 1481 1481 1481 1482 1483 1484 1486 1488 1490 1493 1495 1497 1499 1502 1504 1506 1509 1512 1515 1517 1520 1523 1526 1529 1532
1520 1518 1516 1514 1512 1510 1507 1505 1502 1500 1498 1495 1493 1491 1489 1487 1486 1485 1484 1484 1484 1485 1486 1487 1489 1491 1494 1496 1498 1500 1502 1504 1507 1509 1511 1514 1517 1519 1521 1524 1526 1529 1531
1519 1518 1516 1515 1513 1511 1509 1506 1504 1502 1499 1497 1495 1493 1491 1490 1488 1487 1487 1487 1487 1488 1489 1491 1493 1495 1497 1499 1501 1503 1505 1507 1510 1511 1514 1516 1518 1520 1522 1525 1527 1529 1531
1518 1517 1515 1514 1513 1511 1509 1507 1505 1503 1501 1499 1497 1495 1494 1492 1491 1490 1490 1490 1490 1491 1493 1494 1496 1498 1500 1502 1503 1505 1508 1510 1512 1513 1515 1517 1519 1521 1523 1526 1527 1529 1530
1516 1515 1514 1513 1512 1511 1510 1508 1506 1504 1502 1500 1499 1497 1496 1495 1493 1493 1493 1493 1494 1495 1496 1497 1499 1500 1502 1504 1505 1507 1509 1511 1513 1515 1517 1518 1520 1522 1524 1526 1528 1529 1530
1514 1513 1512 1512 1511 1510 1509 1508 1506 1505 1503 1502 1500 1499 1497 1496 1496 1495 1495 1496 1497 1498 1499 1499 1501 1502 1504 1505 1507 1509 1510 1512 1514 1516 1517 1519 1521 1522 1524 1525 1527 1529 1530
1511 1511 1510 1510 1509 1508 1508 1507 1506 1505 1504 1502 1501 1500 1499 1498 1497 1497 1497 1498 1498 1499 1500 1501 1502 1503 1505 1506 1508 1509 1511 1512 1514 1516 1517 1519 1520 1522 1523 1525 1526 1528 1529
1508 1508 1507 1507 1507 1506 1506 1505 1504 1504 1503 1502 1501 1500 1499 1499 1498 1498 1498 1499 1499 1500 1500 1501 1502 1504 1505 1506 1508 1509 1510 1512 1513 1515 1517 1518 1520 1521 1522 1524 1525 1526 1528
1504 1504 1504 1503 1503 1503 1503 1503 1502 1502 1501 1501 1500 1500 1499 1499 1498 1498 1498 1498 1499 1499 1500 1501 1502 1503 1504 1505 1507 1508 1510 1511 1512 1514 1515 1517 1518 1520 1521 1522 1523 1524 1526
1499 1499 1499 1499 1499 1499 1499 1499 1499 1499 1499 1498 1498 1498 1498 1497 1497 1497 1497 1497 1498 1498 1499 1500 1501 1502 1503 1504 1505 1506 1508 1509 1510 1512 1513 1515 1516 1517 1518 1520 1521 1522 1523
1493 1493 1494 1494 1494 1494 1494 1495 1495 1495 1495 1495 1495 1496 1495 1495 1495 1495 1495 1495 1496 1496 1497 1498 1498 1499 1500 1501 1502 1504 1505 1506 1508 1509 1510 1512 1513 1514 1515 1517 1518 1519 1521
1486 1486 1487 1488 1488 1489 1489 1490 1490 1490 1491 1491 1491 1492 1492 1492 1492 1492 1492 1493 1493 1494 1494 1495 1495 1496 1497 1498 1499 1500 1502 1503 1505 1506 1507 1509 1510 1511 1512 1513 1515 1516 1517
1477 1478 1479 1480 1481 1482 1483 1483 1484 1485 1485 1486 1487 1487 1488 1488 1488 1488 1489 1489 1490 1490 1491 1491 1492 1493 1494 1494 1495 1497 1498 1499 1501 1502 1504 1505 1506 1508 1509 1510 1511 1513 1514
1468 1469 1471 1472 1473 1474 1475 1476 1478 1478 1479 1480 1481 1482 1482 1483 1484 1484 1485 1485 1486 1486 1487 1488 1488 1489 1490 1490 1491 1492 1494 1495 1497 1498 1500 1501 1503 1504 1505 1507 1508 1509 1510
1458 1460 1461 1463 1464 1466 1467 1468 1470 1471 1472 1473 1474 1475 1477 1478 1478 1479 1480 1481 1482 1482 1483 1483 1484 1485 1485 1486 1487 1488 1489 1491 1492 1494 1495 1497 1498 1499 1501 1502 1503 1505 1506